If you wish to contribute or participate in the discussions about articles you are invited to join SKYbrary as a registered user

 Actions

Oulu Airport

From SKYbrary Wiki

EFOU
Airport
ICAO: EFOU
Summary
Name Oulu Airport
Region Europe
Territory Finland FI.gif
Location Oulu, Finland
Serving
Coordinates 64° 55' 48.22" N, 25° 21' 16.42" E
Runways
Designator Length Width Surface ROPS
12/30 2501 m8,205.381 ft <br /> 60 m196.85 ft <br /> ASP yes/yes


METAR
Observation EFOU 131920Z AUTO 26007KT 230V290 CAVOK 15/06 Q1007
Station Oulu
Date/Time 13 June 2021 19:20:00
Wind direction 260°
Wind speed 07 kts
Lowest cloud amount clouds and visibility OK
Temperature 15°C
Dew point 6°C
Humidity 54%
QNH 1007 hPa
Weather condition n/a

GND
Tag(s) Aircraft Ground De/Anti Icing
RE
Tag(s) Landing on Contaminated Runways

Oulu Airport

ICAO: EFOU IATA: OUL

Description

Oulu Airport is located 5.7 nm10,556.4 m <br />10.556 km <br />34,633.858 ft <br /> southwest of the city of Oulu, in central Finland. The airfield is also used for training by the Finnish air force.

Climatology

Subarctic climate (Köppen climate classification Dfc) - long, usually very cold winters, and short, cool to mild summers.

Maps

Terrain

Loading map...

Airport Layout

Loading map...


Accidents & Serious Incidents at or in vicinity of EFOU

None on SKYbrary